Meteo pe oră la Dachne

Astăzi, 11 Aprilie, Duminică

Timp Temperatura Precipitaţii Vânt Presiune Umiditate
00:00 +6°C° 0 mm 4 m/s 756 mmHg 60%
01:00 +6°C° 0 mm 4 m/s 756 mmHg 60%
02:00 +6°C° 0 mm 4 m/s 756 mmHg 61%
03:00 +5°C° 0 mm 4 m/s 756 mmHg 61%
04:00 +5°C° 0 mm 4 m/s 756 mmHg 61%
05:00 +5°C° 0 mm 5 m/s 756 mmHg 62%
06:00 +5°C° 0 mm 5 m/s 756 mmHg 62%
07:00 +5°C° 0 mm 6 m/s 756 mmHg 59%
08:00 +7°C° 0 mm 6 m/s 757 mmHg 56%
09:00 +6°C° 0 mm 7 m/s 757 mmHg 54%
10:00 +9°C° 0 mm 7 m/s 756 mmHg 53%
11:00 +10°C° 0 mm 7 m/s 756 mmHg 52%
12:00 +11°C° 0 mm 8 m/s 756 mmHg 51%
13:00 +11°C° 0 mm 7 m/s 756 mmHg 53%
14:00 +12°C° 0 mm 7 m/s 756 mmHg 55%
15:00 +13°C° 0 mm 6 m/s 756 mmHg 57%
16:00 +11°C° 0 mm 6 m/s 755 mmHg 60%
17:00 +10°C° 0 mm 6 m/s 755 mmHg 64%
18:00 +10°C° 0 mm 6 m/s 755 mmHg 67%
19:00 +9°C° 0 mm 5 m/s 755 mmHg 71%
20:00 +9°C° 0 mm 5 m/s 755 mmHg 76%
21:00 +8°C° 0 mm 4 m/s 755 mmHg 80%
22:00 +8°C° 0 mm 4 m/s 755 mmHg 82%
23:00 +8°C° 0 mm 4 m/s 755 mmHg 84%

Mâine, 12 Aprilie, Luni

Timp Temperatura Precipitaţii Vânt Presiune Umiditate
00:00 +8°C° 0 mm 4 m/s 755 mmHg 86%
01:00 +9°C° 0 mm 3 m/s 754 mmHg 89%
02:00 +8°C° 0 mm 3 m/s 754 mmHg 92%
03:00 +8°C° 0 mm 3 m/s 754 mmHg 94%
04:00 +8°C° 0 mm 3 m/s 754 mmHg 95%
05:00 +8°C° 0 mm 3 m/s 754 mmHg 96%
06:00 +8°C° 0 mm 3 m/s 753 mmHg 96%
07:00 +9°C° 0 mm 3 m/s 753 mmHg 90%
08:00 +11°C° 0 mm 3 m/s 753 mmHg 83%
09:00 +12°C° 0 mm 4 m/s 753 mmHg 76%
10:00 +14°C° 0 mm 4 m/s 753 mmHg 68%
11:00 +15°C° 0 mm 4 m/s 753 mmHg 59%
12:00 +18°C° 0 mm 4 m/s 753 mmHg 51%
13:00 +19°C° 0 mm 5 m/s 753 mmHg 48%
14:00 +19°C° 0 mm 6 m/s 753 mmHg 46%
15:00 +20°C° 0 mm 7 m/s 753 mmHg 43%
16:00 +19°C° 0 mm 6 m/s 753 mmHg 47%
17:00 +17°C° 0 mm 5 m/s 753 mmHg 51%
18:00 +16°C° 0 mm 5 m/s 754 mmHg 55%
19:00 +15°C° 0 mm 4 m/s 754 mmHg 58%
20:00 +14°C° 0 mm 3 m/s 754 mmHg 62%
21:00 +15°C° 0 mm 2 m/s 754 mmHg 65%
22:00 +14°C° 0 mm 2 m/s 754 mmHg 68%
23:00 +14°C° 0 mm 2 m/s 754 mmHg 70%

Poimâine, 13 Aprilie, Marţi

Timp Temperatura Precipitaţii Vânt Presiune Umiditate
00:00 +14°C° 0 mm 2 m/s 754 mmHg 72%
01:00 +13°C° 0 mm 2 m/s 754 mmHg 76%
02:00 +13°C° 0 mm 2 m/s 754 mmHg 80%
03:00 +12°C° 0 mm 2 m/s 754 mmHg 83%
04:00 +12°C° 0 mm 2 m/s 754 mmHg 85%
05:00 +11°C° 0 mm 1 m/s 754 mmHg 87%
06:00 +11°C° 0 mm 1 m/s 754 mmHg 89%
07:00 +12°C° 0 mm 1 m/s 754 mmHg 84%
08:00 +13°C° 0 mm 1 m/s 754 mmHg 78%
09:00 +14°C° 0 mm 2 m/s 754 mmHg 73%
10:00 +15°C° 0 mm 2 m/s 754 mmHg 68%
11:00 +16°C° 0 mm 2 m/s 754 mmHg 63%
12:00 +17°C° 0 mm 3 m/s 754 mmHg 58%
13:00 +17°C° 0 mm 3 m/s 754 mmHg 58%
14:00 +17°C° 0 mm 2 m/s 754 mmHg 58%
15:00 +17°C° 0 mm 2 m/s 754 mmHg 59%
16:00 +16°C° 0 mm 2 m/s 754 mmHg 63%
17:00 +16°C° 0 mm 1 m/s 754 mmHg 67%
18:00 +15°C° 0 mm 1 m/s 753 mmHg 71%
19:00 +15°C° 0 mm 1 m/s 754 mmHg 72%
20:00 +14°C° 0 mm 1 m/s 754 mmHg 74%
21:00 +14°C° 0 mm 1 m/s 754 mmHg 75%
22:00 +14°C° 0 mm 1 m/s 754 mmHg 76%
23:00 +13°C° 0 mm 1 m/s 753 mmHg 77%

14 Aprilie, Miercuri

Timp Temperatura Precipitaţii Vânt Presiune Umiditate
00:00 +13°C° 0 mm 1 m/s 753 mmHg 78%
01:00 +13°C° 0 mm 1 m/s 753 mmHg 78%
02:00 +13°C° 0 mm 1 m/s 753 mmHg 78%
03:00 +12°C° 0 mm 1 m/s 753 mmHg 78%
04:00 +12°C° 0 mm 1 m/s 753 mmHg 78%
05:00 +12°C° 0 mm 1 m/s 753 mmHg 77%
06:00 +12°C° 0 mm 1 m/s 753 mmHg 77%
07:00 +13°C° 0 mm 1 m/s 753 mmHg 74%
08:00 +13°C° 0 mm 1 m/s 753 mmHg 71%
09:00 +14°C° 0 mm 1 m/s 753 mmHg 67%
10:00 +15°C° 0 mm 1 m/s 753 mmHg 64%
11:00 +16°C° 0 mm 2 m/s 753 mmHg 60%
12:00 +17°C° 0 mm 2 m/s 753 mmHg 57%
13:00 +18°C° 0 mm 2 m/s 752 mmHg 54%
14:00 +19°C° 0 mm 2 m/s 752 mmHg 51%
15:00 +19°C° 0 mm 2 m/s 752 mmHg 48%
16:00 +19°C° 0 mm 2 m/s 752 mmHg 48%
17:00 +19°C° 0 mm 2 m/s 752 mmHg 48%
18:00 +19°C° 0 mm 2 m/s 751 mmHg 47%
19:00 +18°C° 0 mm 2 m/s 751 mmHg 52%
20:00 +16°C° 0 mm 2 m/s 752 mmHg 57%
21:00 +15°C° 0 mm 2 m/s 752 mmHg 61%
22:00 +14°C° 0 mm 2 m/s 751 mmHg 65%
23:00 +14°C° 0 mm 2 m/s 751 mmHg 69%

15 Aprilie, Joi

Timp Temperatura Precipitaţii Vânt Presiune Umiditate
00:00 +13°C° 0 mm 2 m/s 751 mmHg 72%
01:00 +13°C° 0 mm 2 m/s 751 mmHg 73%
02:00 +12°C° 0 mm 1 m/s 751 mmHg 74%
03:00 +12°C° 0 mm 1 m/s 751 mmHg 75%
04:00 +12°C° 0 mm 1 m/s 751 mmHg 76%
05:00 +10°C° 0 mm 2 m/s 750 mmHg 77%
06:00 +10°C° 0 mm 2 m/s 750 mmHg 78%
07:00 +12°C° 0 mm 2 m/s 750 mmHg 72%
08:00 +14°C° 0 mm 2 m/s 750 mmHg 67%
09:00 +15°C° 0 mm 2 m/s 750 mmHg 61%
10:00 +16°C° 0 mm 2 m/s 750 mmHg 56%
11:00 +17°C° 0 mm 2 m/s 750 mmHg 51%
12:00 +19°C° 0 mm 2 m/s 750 mmHg 46%
13:00 +19°C° 0 mm 3 m/s 749 mmHg 43%
14:00 +19°C° 0 mm 4 m/s 749 mmHg 41%
15:00 +19°C° 0 mm 4 m/s 749 mmHg 39%
16:00 +19°C° 0 mm 4 m/s 749 mmHg 41%
17:00 +18°C° 0 mm 4 m/s 749 mmHg 43%
18:00 +18°C° 0 mm 4 m/s 749 mmHg 45%
19:00 +16°C° 0 mm 3 m/s 749 mmHg 51%
20:00 +14°C° 0 mm 3 m/s 749 mmHg 58%
21:00 +13°C° 0 mm 3 m/s 749 mmHg 64%
22:00 +13°C° 0 mm 2 m/s 748 mmHg 66%
23:00 +12°C° 0 mm 2 m/s 748 mmHg 68%

16 Aprilie, Vineri

Timp Temperatura Precipitaţii Vânt Presiune Umiditate
00:00 +12°C° 0 mm 2 m/s 748 mmHg 71%
01:00 +10°C° 0 mm 2 m/s 748 mmHg 73%
02:00 +9°C° 0 mm 2 m/s 748 mmHg 76%
03:00 +9°C° 0 mm 2 m/s 748 mmHg 78%
04:00 +8°C° 0 mm 2 m/s 748 mmHg 82%
05:00 +8°C° 0 mm 2 m/s 747 mmHg 86%
06:00 +7°C° 0 mm 2 m/s 747 mmHg 89%
07:00 +9°C° 0 mm 2 m/s 747 mmHg 82%
08:00 +10°C° 0 mm 2 m/s 747 mmHg 75%
09:00 +12°C° 0 mm 2 m/s 746 mmHg 67%
10:00 +13°C° 0 mm 2 m/s 746 mmHg 62%
11:00 +13°C° 0 mm 3 m/s 746 mmHg 57%
12:00 +14°C° 0 mm 4 m/s 746 mmHg 52%
13:00 +13°C° 0.5 mm 4 m/s 746 mmHg 59%
14:00 +12°C° 0.5 mm 4 m/s 745 mmHg 66%
15:00 +11°C° 0.5 mm 4 m/s 745 mmHg 73%
16:00 +10°C° 1 mm 4 m/s 745 mmHg 76%
17:00 +10°C° 1 mm 4 m/s 745 mmHg 80%
18:00 +8°C° 1 mm 4 m/s 745 mmHg 83%
19:00 +8°C° 2.2 mm 4 m/s 744 mmHg 85%
20:00 +7°C° 2.2 mm 5 m/s 744 mmHg 88%
21:00 +5°C° 2.2 mm 6 m/s 744 mmHg 90%
22:00 +5°C° 2.5 mm 6 m/s 744 mmHg 91%
23:00 +4°C° 2.5 mm 6 m/s 744 mmHg 92%
Arată mai mult

Formular de consimțământ

Meteoprog și furnizorii noștri de servicii pot stoca și accesa date personale, precum cookies, identificatori de dispozitiv sau alte tehnologii similare pe dispozitivul dumneavoastră și procesa astfel de date pentru a personaliza conținutul și reclamele, dar și pentru a oferi caracteristici de social media și pentru a analiza traficul.

  • Stocarea și/sau accesarea informațiilor pe dispozitivul dumneavoastră

    Cookies, identificatori de dispozitiv sau alte informații pot fi stocate sau accesate pe dispozitiv în scopurile indicate mai sus.

  • Reclame și conținut personalizat, evaluarea reclamelor și a conținutului, informații despre audiențe și dezvoltarea produselor

    Reclamele și conținutul pot fi personalizate pe baza unui profil. Pot fi adăugate date suplimentare pentru a personaliza mai bine reclamele și conținutul. Performanța reclamelor și conținutului poate fi măsurată. Pot fi obținute informații despre utilizatorii care au văzut reclamele și conținutul. Aceste date pot fi utilizate pentru a dezvolta sau îmbunătăți experiența utilizatorilor, sistemele și software-ul.

Dând clic pe ‘Sunt de acord’, permiteți utilizarea cookie-urilor menționate, a identificatorilor de dispozitiv, balizelor web sau altor tehnologii similare. Setările pot fi modificate din browser-ul dispozitivului dumneavoastră.

În anumite scopuri, interesele legitime pot prima asupra consimțământului. Puteți citi mai multe informații în acest sens în Politica privind Confidențialitatea Datelor și Cookie.